Weather History for Mosby, MO

Change the Weather History Date:

Thursday, December 27, 2012

  Actual Average (KMKC) Record (KMKC)
Temperature  
Mean Temperature 24 °F -  
Max Temperature 33 °F 38 °F 66 °F (2008)
Min Temperature 14 °F 21 °F 5 °F (2000)
Degree Days  
Heating Degree Days 42    
Moisture  
Dew Point 22 °F    
Average Humidity 83    
Maximum Humidity 100    
Minimum Humidity 69    
Precipitation  
Precipitation 0.00 in - - ()
Sea Level Pressure  
Sea Level Pressure 30.05 in    
Wind  
Wind Speed 4 mph (East)    
Max Wind Speed 13 mph    
Max Gust Speed 17 mph    
Visibility 10 miles    
Events      
Averages and records for this station are not official NWS values.
T = Trace of Precipitation, MM = Missing Value Source: NWS Daily Summary

Daily Weather History Graph

Daily Weather History Graph

Search for Another Location

Airport:

Trip Planner

Search our weather history database for the weather conditions in past years. The results will help you decide how hot, cold, wet, or windy it might be!

Date:

Astronomy

Dec. 27, 2012 Rise Set
Actual Time 7:36 AM CST 5:01 PM CST
Civil Twilight 7:05 AM CST 5:31 PM CST
Nautical Twilight 6:32 AM CST 6:05 PM CST
Astronomical Twilight 5:59 AM CST 6:37 PM CST
Moon 4:44 PM CST (12/27) 6:47 AM CST (12/27)
Length of Visible Light 10h 25m
Length of Day
9h 25m
Full, 100% of the Moon is Illuminated
Dec 27
Full
Dec 28
Full
Jan 4
Last Quarter
Jan 11
New
Jan 18
First Quarter

Hourly Weather History & Observations

Time (CST) Temp. Windchill Dew Point Humidity Pressure Visibility Wind Dir Wind Speed Gust Speed Precip Events Conditions
12:15 AM 15.8 °F - 14.0 °F 93% 30.17 in 10.0 mi Calm Calm - N/A   Clear
12:35 AM 14.0 °F - 12.2 °F 93% 30.18 in 10.0 mi Calm Calm - N/A   Clear
12:55 AM 15.8 °F - 14.0 °F 93% 30.18 in 10.0 mi Calm Calm - N/A   Clear
1:15 AM 15.8 °F - 14.0 °F 93% 30.18 in 10.0 mi Calm Calm - N/A   Clear
1:35 AM 15.8 °F - 14.0 °F 93% 30.17 in 10.0 mi Calm Calm - N/A   Clear
1:55 AM 15.8 °F - 14.0 °F 93% 30.17 in 10.0 mi Calm Calm - N/A   Clear
2:15 AM 15.8 °F - 14.0 °F 93% 30.17 in 10.0 mi Calm Calm - N/A   Clear
2:35 AM 14.0 °F - 14.0 °F 100% 30.17 in 10.0 mi Calm Calm - N/A   Clear
2:55 AM 14.0 °F - 14.0 °F 100% 30.18 in 10.0 mi Calm Calm - N/A   Clear
3:15 AM 14.0 °F - 14.0 °F 100% 30.18 in 10.0 mi Calm Calm - N/A   Clear
3:35 AM 14.0 °F - 14.0 °F 100% 30.17 in 10.0 mi Calm Calm - N/A   Clear
3:55 AM 14.0 °F - 12.2 °F 93% 30.17 in 10.0 mi Calm Calm - N/A   Clear
4:35 AM 14.0 °F - 12.2 °F 93% 30.14 in 10.0 mi Calm Calm - N/A   Clear
4:55 AM 14.0 °F - 14.0 °F 100% 30.12 in 10.0 mi Calm Calm - N/A   Clear
5:15 AM 14.0 °F - 12.2 °F 93% 30.12 in 10.0 mi Calm Calm - N/A   Clear
5:55 AM 15.8 °F 8.6 °F 14.0 °F 93% 30.14 in 10.0 mi SSE 4.6 mph - N/A   Overcast
6:15 AM 19.4 °F 11.5 °F 17.6 °F 93% 30.13 in 10.0 mi East 5.8 mph - N/A   Overcast
6:35 AM 19.4 °F - 17.6 °F 93% 30.14 in 10.0 mi Calm Calm - N/A   Overcast
6:55 AM 21.2 °F - 17.6 °F 86% 30.14 in 10.0 mi Calm Calm - N/A   Overcast
7:35 AM 21.2 °F 13.6 °F 19.4 °F 93% 30.12 in 10.0 mi East 5.8 mph - N/A   Overcast
7:55 AM 21.2 °F 14.9 °F 19.4 °F 93% 30.12 in 10.0 mi East 4.6 mph - N/A   Overcast
8:15 AM 23.0 °F 13.9 °F 19.4 °F 86% 30.10 in 10.0 mi East 8.1 mph - N/A   Mostly Cloudy
8:55 AM 24.8 °F 14.6 °F 21.2 °F 86% 30.10 in 10.0 mi East 10.4 mph - N/A   Overcast
9:15 AM 26.6 °F 19.1 °F 21.2 °F 80% 30.12 in 10.0 mi East 6.9 mph - N/A   Mostly Cloudy
9:35 AM 26.6 °F 19.1 °F 21.2 °F 80% 30.12 in 10.0 mi ESE 6.9 mph - N/A   Mostly Cloudy
9:55 AM 26.6 °F 16.8 °F 21.2 °F 80% 30.10 in 10.0 mi ESE 10.4 mph 16.1 mph N/A   Scattered Clouds
10:15 AM 28.4 °F 18.5 °F 21.2 °F 74% 30.10 in 10.0 mi East 11.5 mph - N/A   Mostly Cloudy
10:35 AM 28.4 °F 19.1 °F 21.2 °F 74% 30.10 in 10.0 mi SE 10.4 mph 17.3 mph N/A   Overcast
10:55 AM 28.4 °F 19.7 °F 23.0 °F 80% 30.09 in 10.0 mi ESE 9.2 mph - N/A   Unknown
11:15 AM 28.4 °F 19.1 °F 23.0 °F 80% 30.08 in 10.0 mi ESE 10.4 mph 16.1 mph N/A   Unknown
11:35 AM 30.2 °F 21.3 °F 23.0 °F 75% 30.08 in 10.0 mi ESE 10.4 mph - N/A   Overcast
11:55 AM 30.2 °F 21.9 °F 23.0 °F 75% 30.07 in 10.0 mi ESE 9.2 mph - N/A   Overcast
12:15 PM 30.2 °F 21.9 °F 23.0 °F 75% 30.04 in 10.0 mi ESE 9.2 mph - N/A   Overcast
12:35 PM 32.0 °F 22.5 °F 23.0 °F 69% 30.01 in 10.0 mi East 12.7 mph - N/A   Mostly Cloudy
12:55 PM 32.0 °F 22.5 °F 23.0 °F 69% 29.99 in 10.0 mi SE 12.7 mph 16.1 mph N/A   Scattered Clouds
1:15 PM 32.0 °F 23.6 °F 23.0 °F 69% 29.99 in 10.0 mi SE 10.4 mph 17.3 mph N/A   Clear
1:35 PM 32.0 °F 24.2 °F 24.8 °F 75% 29.99 in 10.0 mi SE 9.2 mph - N/A   Scattered Clouds
1:55 PM 32.0 °F 24.2 °F 24.8 °F 75% 29.98 in 10.0 mi ESE 9.2 mph - N/A   Scattered Clouds
2:15 PM 32.0 °F 24.8 °F 26.6 °F 80% 29.97 in 10.0 mi ESE 8.1 mph - N/A   Scattered Clouds
2:35 PM 33.8 °F 26.4 °F 26.6 °F 75% 29.96 in 10.0 mi ESE 9.2 mph 16.1 mph N/A   Clear
2:55 PM 33.8 °F 26.4 °F 26.6 °F 75% 29.96 in 10.0 mi ESE 9.2 mph - N/A   Clear
3:15 PM 33.8 °F 26.4 °F 26.6 °F 75% 29.95 in 10.0 mi ESE 9.2 mph - N/A   Clear
3:35 PM 33.8 °F 26.4 °F 26.6 °F 75% 29.95 in 10.0 mi East 9.2 mph - N/A   Scattered Clouds
3:55 PM 33.8 °F 27.7 °F 26.6 °F 75% 29.95 in 10.0 mi ESE 6.9 mph - N/A   Overcast
4:15 PM 33.8 °F 27.0 °F 26.6 °F 75% 29.95 in 10.0 mi East 8.1 mph - N/A   Overcast
4:35 PM 33.8 °F 29.6 °F 26.6 °F 75% 29.96 in 10.0 mi East 4.6 mph - N/A   Overcast
4:55 PM 33.8 °F 30.8 °F 26.6 °F 75% 29.96 in 10.0 mi East 3.5 mph - N/A   Overcast
5:15 PM 33.8 °F 29.6 °F 26.6 °F 75% 29.96 in 10.0 mi East 4.6 mph - N/A   Mostly Cloudy
5:35 PM 32.0 °F 26.4 °F 26.6 °F 80% 29.96 in 10.0 mi East 5.8 mph - N/A   Mostly Cloudy
5:55 PM 32.0 °F 28.7 °F 26.6 °F 80% 29.96 in 10.0 mi ENE 3.5 mph - N/A   Scattered Clouds
6:15 PM 32.0 °F 26.4 °F 26.6 °F 80% 29.97 in 10.0 mi ENE 5.8 mph - N/A   Mostly Cloudy
6:35 PM 32.0 °F 26.4 °F 26.6 °F 80% 29.97 in 10.0 mi ENE 5.8 mph - N/A   Scattered Clouds
6:55 PM 32.0 °F 27.5 °F 26.6 °F 80% 29.97 in 10.0 mi East 4.6 mph - N/A   Scattered Clouds
7:15 PM 32.0 °F 26.4 °F 26.6 °F 80% 29.97 in 10.0 mi East 5.8 mph - N/A   Clear
7:35 PM 32.0 °F 25.6 °F 26.6 °F 80% 29.97 in 10.0 mi East 6.9 mph - N/A   Scattered Clouds
7:55 PM 32.0 °F 25.6 °F 26.6 °F 80% 29.97 in 10.0 mi East 6.9 mph - N/A   Scattered Clouds
8:15 PM 32.0 °F 27.5 °F 26.6 °F 80% 29.97 in 10.0 mi East 4.6 mph - N/A   Scattered Clouds
8:35 PM 32.0 °F - 26.6 °F 80% 29.96 in 10.0 mi Calm Calm - N/A   Overcast
8:55 PM 32.0 °F - 26.6 °F 80% 29.97 in 10.0 mi Calm Calm - N/A   Overcast
9:15 PM 32.0 °F 28.7 °F 26.6 °F 80% 29.97 in 10.0 mi East 3.5 mph - N/A   Overcast
9:35 PM 32.0 °F 27.5 °F 26.6 °F 80% 29.97 in 10.0 mi East 4.6 mph - N/A   Overcast
9:55 PM 32.0 °F 27.5 °F 26.6 °F 80% 29.97 in 10.0 mi East 4.6 mph - N/A   Overcast
10:15 PM 32.0 °F 28.7 °F 26.6 °F 80% 29.97 in 10.0 mi East 3.5 mph - N/A   Overcast
10:35 PM 32.0 °F 28.7 °F 26.6 °F 80% 29.97 in 10.0 mi East 3.5 mph - N/A   Overcast
10:55 PM 32.0 °F 26.4 °F 26.6 °F 80% 29.97 in 10.0 mi East 5.8 mph - N/A   Overcast
11:15 PM 32.0 °F 27.5 °F 26.6 °F 80% 29.97 in 10.0 mi East 4.6 mph - N/A   Overcast
11:35 PM 32.0 °F 27.5 °F 26.6 °F 80% 29.97 in 10.0 mi East 4.6 mph - N/A   Overcast
11:55 PM 32.0 °F 28.7 °F 26.6 °F 80% 29.97 in 10.0 mi East 3.5 mph - N/A   Overcast